EW8555 Weather Reports


time (UTC)temp
C
wind
direction
speed
KPH
gust
KPH
rain 1hr
cm
rain 24hr
cm
rain mn
cm
humidity
%
barometer
mb
20260506170011 12 67 4.8 14.5 0.00 1.80 1.78 87 1004.3
20260506164510 12 77 8.0 17.7 0.00 1.80 1.78 87 1004.3
20260506163021 12 63 8.0 17.7 0.00 1.80 1.78 87 1004.3
20260506161509 12 50 6.4 14.5 0.00 1.80 1.78 87 1004.2
20260506160016 12 5 8.0 14.5 0.00 1.80 1.78 86 1004.4
20260506154508 12 61 4.8 16.1 0.00 1.80 1.78 85 1004.4
20260506153007 12 53 8.0 17.7 0.00 1.80 1.78 85 1004.4
20260506151507 12 15 8.0 17.7 0.00 1.80 1.78 86 1004.5
20260506150005 13 76 6.4 16.1 0.00 1.80 1.78 86 1004.6
20260506144504 13 355 6.4 14.5 0.00 1.80 1.78 86 1004.5
20260506143003 13 5 4.8 14.5 0.00 1.80 1.78 87 1004.5
20260506141503 12 71 6.4 14.5 0.00 1.80 1.78 87 1004.4
20260506140001 13 62 4.8 17.7 0.00 1.80 1.78 87 1004.5
20260506134501 12 313 6.4 9.7 0.00 1.80 1.78 86 1004.5
20260506133001 12 15 4.8 11.3 0.00 1.80 1.78 87 1004.5
20260506131604 12 318 4.8 12.9 0.00 1.80 1.78 89 1004.5
20260506124559 12 349 6.4 14.5 0.00 1.80 1.78 88 1004.4
20260506123058 12 26 4.8 16.1 0.00 1.80 1.78 89 1004.3
20260506121559 12 333 8.0 14.5 0.00 1.80 1.78 90 1004.4
20260506120100 12 336 3.2 9.7 0.00 1.80 1.78 90 1004.3
20260506114605 12 5 3.2 8.0 0.00 1.80 1.78 90 1004.4
20260506113056 12 348 3.2 9.7 0.00 1.80 1.78 90 1004.3
20260506111555 12 344 3.2 6.4 0.00 1.80 1.78 91 1004.2
20260506104554 12 345 4.8 14.5 0.00 1.80 1.78 91 1003.9
20260506103054 12 326 3.2 12.9 0.00 1.80 1.78 92 1003.8
20260506101603 12 22 4.8 12.9 0.00 1.80 1.78 93 1003.5
20260506100052 12 345 6.4 14.5 0.00 1.80 1.78 94 1003.5
20260506094615 12 342 8.0 16.1 0.00 1.83 1.78 95 1003.3
20260506093055 12 15 8.0 16.1 0.00 1.83 1.78 96 1003.1
20260506091551 12 347 9.7 17.7 0.00 1.83 1.78 96 1002.9
20260506090050 11 5 6.4 17.7 0.00 1.83 1.78 97 1002.8
20260506084549 11 336 8.0 19.3 0.00 1.83 1.78 97 1002.6
20260506083047 11 323 6.4 16.1 0.00 1.83 1.78 97 1002.6
20260506081545 11 360 6.4 9.7 0.00 1.83 1.78 97 1002.6
20260506073045 11 348 8.0 12.9 0.05 1.83 1.78 97 1002.2
20260506071540 11 344 4.8 12.9 0.05 1.83 1.78 97 1002.1
20260506061537 11 9 8.0 14.5 0.08 1.78 1.73 97 1001.9
20260506044538 11 355 4.8 12.9 0.30 1.57 1.52 96 1001.8
20260506043027 11 326 4.8 14.5 0.28 1.50 1.42 96 1001.8
20260506041526 11 344 4.8 17.7 0.25 1.42 1.37 96 1002.0
20260506040046 11 15 6.4 14.5 0.18 1.35 1.30 96 1002.1
20260506034520 11 40 6.4 12.9 0.15 1.27 1.22 96 1002.2
20260506033017 11 5 6.4 14.5 0.13 1.22 1.17 96 1002.3
20260506031530 11 44 4.8 16.1 0.10 1.17 1.12 96 1002.5
20260506030013 11 24 3.2 16.1 0.18 1.17 1.12 96 1002.6
20260506024517 11 360 3.2 16.1 0.18 1.12 1.07 96 1002.8
20260506023010 11 9 3.2 9.7 0.18 1.09 1.04 96 1002.9
20260506021509 11 26 4.8 9.7 0.20 1.07 1.02 96 1003.1
20260506020005 11 54 6.4 9.7 0.18 0.99 0.94 96 1003.2
20260506014506 11 55 4.8 16.1 0.23 0.94 0.89 95 1003.4
20260506013003 11 5 3.2 14.5 0.23 0.89 0.84 95 1003.4
20260506011502 11 58 4.8 14.5 0.36 0.86 0.81 95 1003.4
20260506010000 12 10 4.8 14.5 0.41 0.81 0.76 95 1003.3
20260506004600 12 360 4.8 9.7 0.41 0.71 0.66 95 1003.4
20260506003056 12 51 6.4 14.5 0.43 0.66 0.61 94 1003.8
20260506001554 12 48 8.0 16.1 0.33 0.51 0.46 94 1003.9
20260506000050 12 67 4.8 12.9 0.25 0.41 0.36 94 1004.1
20260505234556 12 9 6.4 14.5 0.15 0.30 0.25 94 1004.4
20260505233048 12 48 4.8 11.3 0.10 0.23 0.18 93 1004.5
20260505231550 12 53 6.4 11.3 0.10 0.18 0.13 93 1004.7
20260505230040 12 56 4.8 8.0 0.10 0.15 0.10 93 1004.7
20260505224539 12 47 3.2 8.0 0.10 0.15 0.10 92 1004.8
20260505223048 13 55 4.8 14.5 0.08 0.13 0.08 91 1004.9
20260505221536 13 49 3.2 14.5 0.03 0.08 0.03 90 1004.9
20260505220039 13 57 3.2 14.5 0.00 0.05 0.00 88 1004.8
20260505214536 13 28 6.4 14.5 0.00 0.05 0.05 87 1004.8
20260505213030 14 43 8.0 20.9 0.00 0.05 0.05 87 1004.7
20260505211528 14 51 6.4 19.3 0.00 0.05 0.05 86 1004.7
20260505210029 15 42 4.8 14.5 0.00 0.05 0.05 86 1004.7
20260505204533 15 55 4.8 14.5 0.00 0.05 0.05 86 1004.7
20260505203031 15 51 9.7 16.1 0.00 0.05 0.05 86 1004.7
20260505201525 15 43 4.8 8.0 0.00 0.05 0.05 85 1004.8
20260505200036 15 59 3.2 6.4 0.03 0.05 0.05 85 1004.8
20260505194631 15 80 4.8 8.0 0.03 0.05 0.05 84 1004.8
20260505193023 15 71 3.2 9.7 0.03 0.05 0.05 84 1004.7
20260505191523 16 67 4.8 11.3 0.03 0.05 0.05 83 1004.8
20260505190024 16 5 4.8 11.3 0.00 0.03 0.03 82 1004.7
20260505184624 16 36 4.8 9.7 0.00 0.03 0.03 81 1004.7
20260505183020 16 44 6.4 14.5 0.00 0.03 0.03 80 1004.7
20260505181520 17 39 4.8 11.3 0.00 0.03 0.03 80 1004.7
20260505180019 17 44 8.0 19.3 0.00 0.03 0.03 78 1004.6
20260505174520 17 30 8.0 19.3 0.00 0.03 0.03 76 1004.5
20260505173017 18 5 6.4 14.5 0.00 0.03 0.03 73 1004.6
20260505171521 18 16 4.8 8.0 0.00 0.03 0.03 70 1004.5